Weather in Dubenskiy

Russia / Orenburg Oblast     51°27′09″N   56°38′02″E
temp.,
°C
wind,
m/s
gust,
m/s
humid.,
%
clouds,
%
prec.,
mm/h
press.,
hPa
HPBL,
m
27 november, sat
sat2723:00−11sse229974 0.0 103412
02:00−13se229974 0.0 103513
05:00−14se229960 0.0 103514
08:00−14ese229870 0.0 103511
11:00−11se22925 0.0 103653
14:00−7se23865 0.0 103593
17:00−12ese22935 0.0 103510
20:00−17e22955 0.0 103510
28 november, sun
sun2823:00−18e22935 0.0 103611
02:00−19e22925 0.0 103512
05:00−15e228895 0.0 103428
08:00−14e228799 0.0 103218
11:00−9ese238297 0.0 103270
14:00−6ese2384100 0.0 1029105
17:00−7e2288100 0.0 102913
20:00−7e2288100 0.0 102818
29 november, mon
mon2923:00−8ese229090 0.0 102817
02:00−12e229190 0.0 102810
05:00−11e2292100 0.0 102813
08:00−13e219220 0.0 102810
11:00−10e11875 0.0 102933
14:00−6se11825 0.0 102859
17:00−10e11865 0.0 102810
20:00−13e11885 0.0 102810
30 november, tue
tue3023:00−13e11895 0.0 102810
02:00−14e22905 0.0 102611
05:00−14ese228797 0.0 102517
08:00−13ese228593 0.0 102421
11:00−9ese3479100 0.0 102267
14:00−5ese3680100 0.0 1019137
17:00−7ese3284100 0.0 101721
20:00−6ese3483100 0.0 101661
1 december, wed
wed123:00−4ese2589100 0.0 101389
02:00+1sse4878100 0.5 1010238
05:00+1ese3786100 0.5 1009162
08:00+1se51084100 0.4 1007309
11:00+2se51282100 0.4 1005378
14:00+2ese51189100 0.0 1002296
17:00+2se51287100 0.0 999333
20:00+2sse4128538 0.0 996317